Time,TemperatureF,DewpointF,PressureIn,WindDirection,WindDirectionDegrees,WindSpeedMPH,WindSpeedGustMPH,Humidity,HourlyPrecipIn,Conditions,Clouds,dailyrainin,SolarRadiationWatts/m^2,SoftwareType,DateUTC
2013-08-31 01:00:00,49.0,42.0,-100.00,WNW,302,1.0,1.0,75,-99.99,,,0.00,-0.200000,,2013-08-31 08:00:00,
2013-08-31 01:52:00,49.0,42.0,-100.00,WNW,302,1.0,1.0,75,-99.99,,,0.00,-0.200000,,2013-08-31 08:52:00,
2013-08-31 02:00:00,50.0,43.0,-100.00,WNW,300,0.0,1.0,76,-99.99,,,0.00,3.300000,,2013-08-31 09:00:00,
2013-08-31 02:53:00,50.0,43.0,-100.00,WNW,300,0.0,1.0,76,-99.99,,,0.00,3.300000,,2013-08-31 09:53:00,
2013-08-31 03:00:00,50.0,42.0,-100.00,WNW,296,0.0,1.0,75,-99.99,,,0.00,6.800000,,2013-08-31 10:00:00,
2013-08-31 03:53:00,50.0,42.0,-100.00,WNW,296,0.0,1.0,75,-99.99,,,0.00,6.800000,,2013-08-31 10:53:00,
2013-08-31 04:00:00,49.0,40.0,-100.00,West,275,0.0,1.0,73,-99.99,,,0.00,15.600000,,2013-08-31 11:00:00,
2013-08-31 04:52:00,49.0,40.0,-100.00,West,275,0.0,1.0,73,-99.99,,,0.00,15.600000,,2013-08-31 11:52:00,
2013-08-31 06:00:00,48.0,41.0,-100.00,WNW,300,0.0,1.0,76,-99.99,,,0.00,-0.200000,,2013-08-31 13:00:00,
2013-08-31 06:52:00,48.0,41.0,-100.00,WNW,300,0.0,1.0,76,-99.99,,,0.00,-0.200000,,2013-08-31 13:52:00,
2013-08-31 07:00:00,49.0,41.0,-100.00,NW,304,0.0,1.0,74,-99.99,,,0.00,13.900000,,2013-08-31 14:00:00,
2013-08-31 07:52:00,49.0,41.0,-100.00,NW,304,0.0,1.0,74,-99.99,,,0.00,13.900000,,2013-08-31 14:52:00,
2013-08-31 08:00:00,58.0,47.0,-100.00,ENE,58,0.0,2.0,67,-99.99,,,0.00,75.400002,,2013-08-31 15:00:00,
2013-08-31 08:55:00,58.0,47.0,-100.00,ENE,58,0.0,2.0,67,-99.99,,,0.00,75.400002,,2013-08-31 15:55:00,
2013-08-31 10:00:00,61.0,44.0,-100.00,SSE,162,2.0,4.0,53,-99.99,,,0.00,520.200012,,2013-08-31 17:00:00,
2013-08-31 10:53:00,61.0,44.0,-100.00,SSE,162,2.0,4.0,53,-99.99,,,0.00,520.200012,,2013-08-31 17:53:00,
2013-08-31 11:00:00,63.0,42.0,-100.00,SE,137,2.0,5.0,47,-99.99,,,0.00,656.000000,,2013-08-31 18:00:00,
2013-08-31 11:52:00,63.0,42.0,-100.00,SE,137,2.0,5.0,47,-99.99,,,0.00,656.000000,,2013-08-31 18:52:00,
2013-08-31 15:00:00,69.0,42.0,-100.00,NE,39,2.0,5.0,38,-99.99,,,0.00,757.099976,,2013-08-31 22:00:00,
2013-08-31 15:53:00,69.0,42.0,-100.00,NE,39,2.0,5.0,38,-99.99,,,0.00,757.099976,,2013-08-31 22:53:00,
2013-08-31 16:00:00,68.0,41.0,-100.00,East,79,2.0,4.0,37,-99.99,,,0.00,653.400024,,2013-08-31 23:00:00,
2013-08-31 16:52:00,68.0,41.0,-100.00,East,79,2.0,4.0,37,-99.99,,,0.00,653.400024,,2013-08-31 23:52:00,
2013-08-31 17:00:00,68.0,39.0,-100.00,NE,43,1.0,3.0,34,-99.99,,,0.00,483.299988,,2013-09-01 00:00:00,
2013-08-31 17:52:00,68.0,39.0,-100.00,NE,43,1.0,3.0,34,-99.99,,,0.00,483.299988,,2013-09-01 00:52:00,
2013-08-31 18:00:00,64.0,39.0,-100.00,North,8,2.0,5.0,40,-99.99,,,0.00,284.600006,,2013-09-01 01:00:00,
2013-08-31 18:52:00,64.0,39.0,-100.00,North,8,2.0,5.0,40,-99.99,,,0.00,284.600006,,2013-09-01 01:52:00,
2013-08-31 19:00:00,62.0,40.0,-100.00,NNE,17,1.0,4.0,44,-99.99,,,-99.99,82.400002,,2013-09-01 02:00:00,
2013-08-31 19:53:00,62.0,40.0,-100.00,NNE,17,1.0,4.0,44,-99.99,,,-99.99,82.400002,,2013-09-01 02:53:00,
2013-08-31 20:00:00,-999.0,-99.9,-100.00,NW,310,0.0,1.0,-999,-99.99,,,-99.99,,,2013-09-01 03:00:00,
2013-08-31 20:54:00,58.0,39.0,-100.00,NW,310,0.0,1.0,49,-99.99,,,0.00,6.400000,,2013-09-01 03:54:00,
2013-08-31 21:00:00,57.0,40.0,-100.00,WNW,303,1.0,1.0,53,-99.99,,,0.00,-0.200000,,2013-09-01 04:00:00,
2013-08-31 21:54:00,57.0,40.0,-100.00,WNW,303,1.0,1.0,53,-99.99,,,0.00,-0.200000,,2013-09-01 04:54:00,
2013-08-31 22:00:00,55.0,40.0,-100.00,WNW,288,1.0,2.0,56,-99.99,,,0.00,-0.200000,,2013-09-01 05:00:00,
2013-08-31 22:52:00,55.0,40.0,-100.00,WNW,288,1.0,2.0,56,-99.99,,,0.00,-0.200000,,2013-09-01 05:52:00,
2013-08-31 23:00:00,55.0,38.0,-100.00,NW,309,1.0,3.0,53,-99.99,,,0.00,-0.200000,,2013-09-01 06:00:00,
2013-08-31 23:52:00,55.0,38.0,-100.00,NW,309,1.0,3.0,53,-99.99,,,0.00,-0.200000,,2013-09-01 06:52:00,